• Em Portugal
  • Lista de países
  • Para 7 dias
  • Temperatura da água
  • Mapas de satélite
  • Mapa do tempo
  • Widgets de tempo
  • user-avatar
    Iniciar Sessão

    Previsão horária em São Miguel de Tucumán

    Hoje, 16 Dezembro, Sábado

    Tempo Temperatura Precipitação Vento Pressão Humidade
    00:00 +29°C° 0 mm 1 m/s 714 mmHg 64%
    01:00 +29°C° 0 mm 1 m/s 714 mmHg 65%
    02:00 +28°C° 0 mm 1 m/s 713 mmHg 66%
    03:00 +28°C° 0 mm 1 m/s 713 mmHg 67%
    04:00 +27°C° 0 mm 2 m/s 713 mmHg 67%
    05:00 +27°C° 0 mm 2 m/s 713 mmHg 68%
    06:00 +29°C° 0 mm 2 m/s 714 mmHg 62%
    07:00 +31°C° 0 mm 3 m/s 714 mmHg 56%
    08:00 +34°C° 0 mm 3 m/s 714 mmHg 50%
    09:00 +35°C° 0 mm 4 m/s 714 mmHg 44%
    10:00 +37°C° 0 mm 4 m/s 714 mmHg 39%
    11:00 +40°C° 0 mm 5 m/s 714 mmHg 33%
    12:00 +41°C° 0 mm 5 m/s 713 mmHg 32%
    13:00 +42°C° 0 mm 5 m/s 712 mmHg 30%
    14:00 +43°C° 0 mm 5 m/s 711 mmHg 28%
    15:00 +42°C° 0 mm 5 m/s 711 mmHg 29%
    16:00 +42°C° 0 mm 4 m/s 710 mmHg 30%
    17:00 +42°C° 0 mm 4 m/s 709 mmHg 31%
    18:00 +38°C° 0 mm 3 m/s 710 mmHg 35%
    19:00 +36°C° 0 mm 3 m/s 710 mmHg 40%
    20:00 +34°C° 0 mm 3 m/s 710 mmHg 44%
    21:00 +34°C° 0 mm 3 m/s 711 mmHg 43%
    22:00 +34°C° 0 mm 3 m/s 711 mmHg 43%
    23:00 +33°C° 0 mm 3 m/s 712 mmHg 42%

    Amanhã, 17 Dezembro, Domingo

    Tempo Temperatura Precipitação Vento Pressão Humidade
    00:00 +33°C° 0 mm 3 m/s 712 mmHg 43%
    01:00 +31°C° 0 mm 2 m/s 711 mmHg 44%
    02:00 +30°C° 0 mm 2 m/s 711 mmHg 44%
    03:00 +30°C° 0 mm 2 m/s 711 mmHg 45%
    04:00 +29°C° 0 mm 2 m/s 711 mmHg 45%
    05:00 +29°C° 0 mm 2 m/s 712 mmHg 46%
    06:00 +30°C° 0 mm 3 m/s 713 mmHg 44%
    07:00 +33°C° 0 mm 4 m/s 715 mmHg 42%
    08:00 +35°C° 0 mm 5 m/s 716 mmHg 40%
    09:00 +32°C° 0,5 mm 6 m/s 718 mmHg 54%
    10:00 +29°C° 0,5 mm 6 m/s 719 mmHg 67%
    11:00 +27°C° 0,5 mm 6 m/s 721 mmHg 80%
    12:00 +26°C° 0,2 mm 5 m/s 721 mmHg 80%
    13:00 +23°C° 0,2 mm 4 m/s 722 mmHg 81%
    14:00 +22°C° 0,2 mm 3 m/s 722 mmHg 82%
    15:00 +24°C° 0 mm 3 m/s 721 mmHg 74%
    16:00 +26°C° 0 mm 3 m/s 721 mmHg 66%
    17:00 +27°C° 0 mm 2 m/s 721 mmHg 58%
    18:00 +26°C° 0 mm 2 m/s 721 mmHg 62%
    19:00 +24°C° 0 mm 1 m/s 722 mmHg 66%
    20:00 +23°C° 0 mm 1 m/s 722 mmHg 70%
    21:00 +23°C° 0 mm 1 m/s 723 mmHg 71%
    22:00 +23°C° 0 mm 1 m/s 723 mmHg 72%
    23:00 +22°C° 0 mm 1 m/s 724 mmHg 73%

    Depois de amanhã, 18 Dezembro, Segunda-feira

    Tempo Temperatura Precipitação Vento Pressão Humidade
    00:00 +22°C° 0 mm 1 m/s 723 mmHg 72%
    01:00 +22°C° 0 mm 1 m/s 723 mmHg 71%
    02:00 +22°C° 0 mm 1 m/s 722 mmHg 71%
    03:00 +21°C° 0 mm 1 m/s 722 mmHg 70%
    04:00 +21°C° 0 mm 1 m/s 722 mmHg 69%
    05:00 +21°C° 0 mm 1 m/s 722 mmHg 68%
    06:00 +22°C° 0 mm 1 m/s 722 mmHg 64%
    07:00 +23°C° 0 mm 1 m/s 722 mmHg 60%
    08:00 +24°C° 0 mm 1 m/s 723 mmHg 56%
    09:00 +26°C° 0 mm 1 m/s 723 mmHg 51%
    10:00 +29°C° 0 mm 2 m/s 722 mmHg 45%
    11:00 +31°C° 0 mm 2 m/s 722 mmHg 40%
    12:00 +31°C° 0 mm 2 m/s 721 mmHg 40%
    13:00 +33°C° 0 mm 3 m/s 721 mmHg 40%
    14:00 +33°C° 0 mm 3 m/s 720 mmHg 39%
    15:00 +33°C° 0 mm 3 m/s 719 mmHg 42%
    16:00 +31°C° 0 mm 3 m/s 718 mmHg 44%
    17:00 +31°C° 0 mm 3 m/s 717 mmHg 46%
    18:00 +29°C° 0 mm 3 m/s 718 mmHg 51%
    19:00 +28°C° 0 mm 2 m/s 718 mmHg 55%
    20:00 +26°C° 0 mm 1 m/s 718 mmHg 60%
    21:00 +26°C° 0 mm 1 m/s 719 mmHg 61%
    22:00 +26°C° 0 mm 1 m/s 719 mmHg 62%
    23:00 +25°C° 0 mm 1 m/s 719 mmHg 63%

    19 Dezembro, Terça-feira

    Tempo Temperatura Precipitação Vento Pressão Humidade
    00:00 +25°C° 0 mm 1 m/s 719 mmHg 64%
    01:00 +25°C° 0 mm 1 m/s 718 mmHg 65%
    02:00 +25°C° 0 mm 1 m/s 718 mmHg 66%
    03:00 +24°C° 0 mm 1 m/s 718 mmHg 67%
    04:00 +24°C° 0 mm 1 m/s 718 mmHg 68%
    05:00 +24°C° 0 mm 1 m/s 718 mmHg 69%
    06:00 +25°C° 0 mm 1 m/s 718 mmHg 65%
    07:00 +27°C° 0 mm 1 m/s 719 mmHg 61%
    08:00 +29°C° 0 mm 1 m/s 719 mmHg 57%
    09:00 +31°C° 0 mm 2 m/s 719 mmHg 51%
    10:00 +32°C° 0 mm 2 m/s 719 mmHg 46%
    11:00 +35°C° 0 mm 2 m/s 719 mmHg 41%
    12:00 +36°C° 0 mm 3 m/s 718 mmHg 40%
    13:00 +37°C° 0 mm 3 m/s 717 mmHg 39%
    14:00 +38°C° 0 mm 3 m/s 716 mmHg 37%
    15:00 +37°C° 0,1 mm 2 m/s 716 mmHg 41%
    16:00 +36°C° 0,1 mm 2 m/s 716 mmHg 45%
    17:00 +35°C° 0,1 mm 2 m/s 715 mmHg 49%
    18:00 +32°C° 0,7 mm 2 m/s 716 mmHg 56%
    19:00 +30°C° 0,7 mm 1 m/s 716 mmHg 63%
    20:00 +29°C° 0,7 mm 1 m/s 716 mmHg 70%
    21:00 +28°C° 1,5 mm 1 m/s 717 mmHg 74%
    22:00 +27°C° 1,5 mm 1 m/s 717 mmHg 77%
    23:00 +26°C° 1,5 mm 1 m/s 718 mmHg 81%

    20 Dezembro, Quarta-feira

    Tempo Temperatura Precipitação Vento Pressão Humidade
    00:00 +26°C° 1,5 mm 1 m/s 718 mmHg 82%
    01:00 +26°C° 1,5 mm 1 m/s 717 mmHg 83%
    02:00 +25°C° 1,5 mm 1 m/s 717 mmHg 85%
    03:00 +25°C° 0,7 mm 1 m/s 717 mmHg 86%
    04:00 +25°C° 0,7 mm 1 m/s 717 mmHg 88%
    05:00 +24°C° 0,7 mm 1 m/s 717 mmHg 90%
    06:00 +25°C° 0,2 mm 1 m/s 717 mmHg 87%
    07:00 +26°C° 0,2 mm 1 m/s 718 mmHg 85%
    08:00 +27°C° 0,2 mm 1 m/s 718 mmHg 82%
    09:00 +29°C° 0,1 mm 2 m/s 718 mmHg 74%
    10:00 +31°C° 0,1 mm 2 m/s 718 mmHg 67%
    11:00 +32°C° 0,1 mm 2 m/s 717 mmHg 59%
    12:00 +34°C° 0,1 mm 2 m/s 717 mmHg 56%
    13:00 +35°C° 0,1 mm 2 m/s 716 mmHg 53%
    14:00 +36°C° 0,1 mm 2 m/s 715 mmHg 51%
    15:00 +35°C° 0,4 mm 2 m/s 714 mmHg 55%
    16:00 +34°C° 0,4 mm 2 m/s 714 mmHg 60%
    17:00 +32°C° 0,4 mm 2 m/s 713 mmHg 64%
    18:00 +31°C° 0,2 mm 2 m/s 714 mmHg 70%
    19:00 +30°C° 0,2 mm 1 m/s 714 mmHg 76%
    20:00 +28°C° 0,2 mm 1 m/s 714 mmHg 82%
    21:00 +28°C° 0,2 mm 1 m/s 715 mmHg 82%
    22:00 +27°C° 0,2 mm 1 m/s 715 mmHg 83%
    23:00 +27°C° 0,2 mm 1 m/s 715 mmHg 83%

    21 Dezembro, Quinta-feira

    Tempo Temperatura Precipitação Vento Pressão Humidade
    00:00 +27°C° 0 mm 1 m/s 714 mmHg 83%
    01:00 +26°C° 0 mm 1 m/s 714 mmHg 83%
    02:00 +26°C° 0 mm 1 m/s 713 mmHg 83%
    03:00 +26°C° 0 mm 1 m/s 713 mmHg 83%
    04:00 +26°C° 0 mm 1 m/s 713 mmHg 83%
    05:00 +25°C° 0 mm 1 m/s 713 mmHg 83%
    06:00 +27°C° 0 mm 1 m/s 713 mmHg 76%
    07:00 +29°C° 0 mm 1 m/s 714 mmHg 70%
    08:00 +31°C° 0 mm 1 m/s 714 mmHg 64%
    09:00 +32°C° 0 mm 1 m/s 714 mmHg 58%
    10:00 +35°C° 0 mm 2 m/s 714 mmHg 52%
    11:00 +37°C° 0 mm 2 m/s 714 mmHg 46%
    12:00 +37°C° 0,4 mm 2 m/s 714 mmHg 46%
    13:00 +37°C° 0,4 mm 2 m/s 713 mmHg 47%
    14:00 +38°C° 0,4 mm 2 m/s 713 mmHg 47%
    15:00 +37°C° 2,1 mm 2 m/s 713 mmHg 51%
    16:00 +36°C° 2,1 mm 2 m/s 712 mmHg 54%
    17:00 +35°C° 2,1 mm 1 m/s 712 mmHg 58%
    18:00 +33°C° 2 mm 1 m/s 713 mmHg 62%
    19:00 +31°C° 2 mm 1 m/s 713 mmHg 67%
    20:00 +30°C° 2 mm 1 m/s 714 mmHg 72%
    21:00 +29°C° 4 mm 1 m/s 714 mmHg 75%
    22:00 +28°C° 4 mm 1 m/s 714 mmHg 79%
    23:00 +27°C° 4 mm 1 m/s 714 mmHg 83%
    Mostrar mais